19 Jan
2009
19 Jan
'09
9:49 p.m.
ISS 1 25544U 98067A 09019.66443287 .00011179 00000-0 93909-4 0 1040 2 25544 051.6435 347.2209 0007790 283.3836 079.8947 15.70448043582598
5814
Age (days ago)
5814
Last active (days ago)
0 comments
1 participants
participants (1)
-
Dave Larsen PhD